User: anonymous   Login
Location: Niagara
(43.2500°N, 79.0670°W)
Time: 15:41:55
(UTC-04:00)
Language:

Tiangong 2 - Orbit

View from above orbital plane
View from above orbital plane
View from above satellite
View from above satellite

Ground track
Ground track

The orbit data is extracted from the following two-line orbital elements,

1 41765U 16057A   18200.28498343  .00003088  00000-0  43193-4 0  9997
2 41765  42.7840 149.4782 0005837 134.7833  16.1123 15.59063601105036
Epoch (UTC): 19 July 2018 06:50:22
Eccentricity: 0.0005837
inclination: 42.7840°
perigee height: 386 km
apogee height: 394 km
right ascension of ascending node: 149.4782°
argument of perigee: 134.7833°
revolutions per day: 15.59063601
mean anomaly at epoch: 16.1123°
orbit number at epoch: 10503

The dashed part of the orbit path shows where the satellite is in the earth's shadow,  

DLR